THOR ALTAIR R/B, 1583

Orbit data source: Space-Track

THOR ALTAIR R/B, 1583 is space debris in SSO originally from a launch on Fri, 10 Sep 1965 UTC launched from the Air Force Western Test Range (AFWTR). Debris objects in space refer to the collection of defunct objects orbiting the Earth. Examples of debris include non-operational satellites, rocket bodies, and fragments generated from explosions, collisions, or faulty payload assembly.

Loading next visibility...
THOR ALTAIR R/B details
Identifier
1583, 1965-072D
Orbit
SSO
Last TLE update16 hours ago
Origin
Flag of USUSAF SSD (US)
ManufacturerUTC
MissionSpacecraft
Bus & MotorFW4, Unknown motor
Mass25 kg wet, 25 kg dry
Launch date (UTC)
1965-09-10 (59 years ago)
Launch vehicleUnknown
Launch site
Air Force Western Test Range (AFWTR)
Object type
Payload
Rocket body
Debris
Shape & HBRCyl, 1.5 m
Radar Cross Section0.687 m², Medium (>0.1 m² and < 1m²)

Expand to show TLE details & history

TLE from 16 hours ago
0 THOR ALTAIR R/B
1  1583U 65072D   24355.97661378  .00003094  00000-0  53460-3 0  9990
2  1583  98.4574 207.2861 0147014 127.4462 234.0218 14.62283693108187
Epoch: 2024-12-20T23:26Z
Definitive object data (Epoch: 2024-12-20T23:26:19.43Z)
Latitude-0.0001°
Longitude125.67076°
Altitude750.801 km
Speed7.446 km/s
True Right ascension13h 49m 08s
True Declination0° 00' 00"
Sunlit
Object was in daylight at TLE epoch
Visualization TLE readout
Latitude-26.11609°
Longitude-57.8169°
Altitude677.415 km
Speed7.527 km/s
Apparent Right ascension01h 50m 46s
Apparent Declination-32° 34' 47"
Sunlit
Object is in daylight
Visualization observer readout
Local Sidereal Time14:10:57
Azimuth30.532° NE
Elevation-81.615°
Doppler factor1
Orbital elements
Apogee altitude786.706 km
Perigee altitude579.092 km
Semi-major axis7,061.036 km
Eccentricity0.0147014
Inclination98.4574°
RAAN207.2861°
Arg. of periapsis127.4462°
True anomaly232.6732°
Mean anomaly234.0218°
Eccentric anomaly233.34604°
Mean motion3.65797 °/min
BSTAR0.0005346
Orbital period98.42 mins
Loading maneuver chart data...
Loading historical data...
Loading historical data...
Loading historical data...
Loading historical data...
Loading historical data...
Loading historical data...
Loading historical data...

THOR ALTAIR R/B Visibility forecast

Observer location: undefined°, undefined

Span
Click to sort rows by Start time (UTC) header in descending order
Start Az.
Max El. time (UTC)
Max El. Az.
Max El.
End time (UTC)
End Az.
5 mins2024-12-22 02:18:42.365Z55.445° ENE2024-12-22 02:20:42.365Z88.613° E18.174°2024-12-22 02:23:42.365Z138.707° SSE
5 mins2024-12-22 03:56:42.365Z332.299° NNW2024-12-22 03:58:42.365Z283.511° WNW26.493°2024-12-22 04:01:42.365Z231.65° WSW
5 mins2024-12-22 13:22:42.365Z101.877° ESE2024-12-22 13:24:42.365Z66.008° ENE21.533°2024-12-22 13:27:42.365Z19.238° NNE
7 mins2024-12-22 14:58:42.365Z205.139° SW2024-12-22 15:01:42.365Z258.096° W28.356°2024-12-22 15:05:42.365Z325.121° NNW
|